User: anonymous   Login
Location: Unspecified
(0.0000°N, 0.0000°E)
Time: 01:40:19
(UTC+00:00)
Language:

USA 153 - Orbit

View from above orbital plane
View from above orbital plane
View from above satellite
View from above satellite

Ground track
Ground track

The orbit data is extracted from the following two-line orbital elements,

1 26575U 00065A   17107.42779599 0.00000000  00000-0  00000-0 0    07
2 26575   6.0004  56.4831 0007710 280.9706  78.9485  1.00270000    02
Epoch (UTC): 17 April 2017 10:16:01
Eccentricity: 0.0007710
inclination: 6.0004°
perigee height: 35754 km
apogee height: 35819 km
right ascension of ascending node: 56.4831°
argument of perigee: 280.9706°
revolutions per day: 1.00270000
mean anomaly at epoch: 78.9485°
orbit number at epoch: 0

The dashed part of the orbit path shows where the satellite is in the earth's shadow,  

DLR